Vorticity
nan nan nan nan nan nan nan nan nan nan nan nan nan nan nan nan nan nan nan nan nan nan nan nan nan nan nan nan nan nan nan nan nan nan nan nan nan nan nan nan nan nan nan nan nan
nan 6 6 6 6 7 7 7 7 7 7 7 7 7 7 15 21 8 14 19 13 -1 2 6 6 3 1 8 7 4 7 9 8 6 6 4 8 12 16 3 6 15 17 13 nan
nan 7 7 7 7 7 7 7 7 7 7 7 8 8 9 16 14 11 20 19 2 -3 4 5 7 2 4 8 8 7 6 9 9 7 3 3 6 18 9 7 10 8 8 4 nan
nan 7 7 7 7 7 6 7 8 7 7 7 7 8 19 21 3 9 17 20 6 -2 4 10 4 2 7 7 9 5 11 9 10 11 8 8 6 6 4 12 14 13 8 5 nan
nan 7 6 7 7 7 7 7 8 8 8 8 8 12 18 12 8 7 10 10 6 4 7 9 3 5 4 11 11 10 14 12 10 5 6 8 4 3 2 16 24 10 7 5 nan
nan 6 6 6 7 8 7 8 8 8 8 9 9 13 14 3 11 10 8 4 4 6 8 8 7 5 5 11 10 16 11 10 8 5 5 7 5 -0 1 15 18 6 5 6 nan
nan 6 6 6 7 7 8 8 8 9 11 11 13 12 9 7 2 5 9 5 4 6 7 4 8 4 7 16 10 2 -0 4 11 8 6 3 10 9 6 11 13 6 5 6 nan
nan 7 7 8 8 8 8 8 10 15 19 21 14 10 3 8 7 6 6 6 11 6 4 5 10 7 9 10 5 -1 4 8 6 5 8 4 10 14 6 11 11 6 4 4 nan
nan 7 7 7 8 9 9 11 20 25 22 11 6 8 6 10 10 12 8 9 8 10 7 9 11 10 8 8 5 11 11 3 9 11 6 10 8 12 9 6 10 11 6 4 nan
nan 7 7 8 8 9 16 27 25 15 12 3 2 4 11 8 7 13 11 12 5 8 12 13 9 6 4 9 9 8 9 7 11 8 8 9 9 12 12 9 5 7 9 8 nan
nan 8 7 7 9 13 24 22 11 11 8 7 4 -0 3 10 7 12 14 9 10 10 9 7 9 7 7 6 6 6 4 7 12 10 9 10 10 7 6 5 7 9 11 9 nan
nan 8 8 7 8 24 18 9 9 4 9 14 8 8 6 9 8 9 15 9 11 7 3 9 10 7 10 7 6 6 6 9 9 9 9 10 5 11 10 6 6 6 10 8 nan
nan 8 8 6 25 23 9 3 5 12 13 11 16 10 15 10 4 6 8 8 8 9 10 6 6 10 7 7 9 6 9 6 11 7 7 9 10 12 9 13 10 8 12 12 nan
nan 8 7 21 24 8 8 6 10 12 7 14 10 13 15 6 10 12 7 7 13 11 7 4 10 11 6 10 9 4 12 8 9 7 9 7 11 10 18 12 11 9 9 12 nan
nan 10 13 22 10 6 4 6 15 13 5 12 11 12 14 8 8 11 7 11 15 9 8 9 10 10 8 8 8 12 9 12 8 6 6 7 13 10 13 11 9 12 7 10 nan
nan 9 17 17 10 5 4 14 13 10 6 6 8 9 9 7 8 13 10 9 11 7 8 13 7 12 11 8 4 11 10 9 10 8 8 11 5 7 11 13 8 10 11 8 nan
nan 16 17 10 6 8 13 13 12 5 3 5 7 13 16 10 10 8 10 9 8 8 8 12 7 9 12 9 8 8 9 8 7 11 12 9 4 7 6 10 18 8 12 11 nan
nan 26 20 7 5 9 13 11 9 7 6 5 8 13 10 9 15 13 10 5 4 9 13 11 8 9 8 13 10 7 8 7 9 7 14 9 4 11 8 12 20 13 10 9 nan
nan 22 10 15 12 7 10 10 8 5 4 8 12 13 6 11 12 13 12 11 10 6 6 2 10 10 11 13 8 7 10 10 3 8 12 5 5 12 10 24 22 15 9 10 nan
nan 12 11 15 9 6 10 8 8 6 10 13 12 7 7 10 8 9 12 9 16 12 9 6 10 10 13 7 9 14 4 6 13 14 4 9 11 11 7 12 14 19 16 12 nan
nan 11 14 9 4 9 11 8 4 5 15 13 12 11 7 12 8 7 8 9 8 15 14 8 9 8 10 12 7 5 9 9 13 9 9 8 10 13 12 10 10 8 12 18 nan
nan 7 10 9 9 7 6 8 11 10 10 13 11 8 8 9 11 12 12 5 9 15 10 11 10 15 3 6 13 11 8 7 6 7 9 10 7 11 17 15 10 8 8 11 nan
nan 8 10 12 6 7 9 11 7 6 12 11 10 11 9 11 12 7 8 4 6 17 12 14 8 5 4 12 17 14 11 7 7 17 13 3 4 11 19 14 13 11 4 8 nan
nan 8 10 10 11 10 9 8 7 12 10 10 10 10 10 8 8 8 10 4 4 15 12 17 14 13 11 8 7 11 12 10 7 8 13 6 9 7 10 12 11 8 11 14 nan
nan 14 9 3 8 13 10 7 7 8 8 8 13 8 9 7 8 10 10 10 7 5 17 14 9 9 13 12 6 7 10 16 14 9 11 15 10 11 13 6 9 8 8 8 nan
nan 7 12 11 10 8 7 11 11 9 7 6 8 10 10 10 9 1 8 13 4 2 10 12 15 12 10 11 12 1 5 14 12 17 12 10 8 12 14 17 9 7 7 8 nan
nan nan nan nan nan nan nan nan nan nan nan nan nan nan nan nan nan nan nan nan nan nan nan nan nan nan nan nan nan nan nan nan nan nan nan nan nan nan nan nan nan nan nan nan nan
CAPE
3 3 3 2 2 2 2 2 1 1 0 0 0 0 0 0 0 0 0 0 7 892 623 320 59 170 319 382 553 67 43 75 47 169 273 285 58 23 11 0 0 9 21 53 157
3 3 2 2 1 2 2 2 1 1 0 0 0 0 0 0 0 0 0 124 661 832 175 120 104 153 379 472 588 191 23 15 113 107 309 376 306 165 22 1 0 0 12 130 101
3 2 2 2 2 2 2 2 2 1 1 0 0 0 0 0 0 0 187 628 649 863 32 28 82 357 470 478 289 69 26 34 29 15 313 437 260 109 9 18 0 0 14 137 72
3 3 2 2 2 1 1 1 2 1 1 0 0 0 0 0 0 0 944 675 689 451 44 27 202 523 428 339 169 54 38 17 36 181 244 347 39 321 275 185 1 0 88 45 46
6 6 3 2 2 1 1 2 1 1 1 0 0 0 0 0 0 369 1059 1121 428 131 36 3 101 171 157 1 73 41 30 38 158 287 285 9 3 233 122 26 0 0 0 0 0
1 2 2 3 3 1 1 1 1 1 0 0 0 0 0 0 0 0 0 0 13 45 4 30 42 105 52 2 48 39 95 162 266 393 200 90 20 96 18 54 0 0 0 0 0
1 0 3 2 2 1 1 0 0 0 0 0 0 0 0 0 0 0 0 0 0 0 0 7 20 44 8 49 118 130 144 157 131 145 153 197 115 58 34 67 0 0 0 0 0
2 1 3 3 3 2 1 2 0 0 0 0 0 0 0 0 0 0 0 0 0 0 0 0 3 3 1 3 14 52 0 17 128 158 117 78 114 128 110 173 0 0 0 0 0
1 2 2 2 2 2 1 1 0 0 0 0 0 0 0 0 0 0 0 0 0 0 0 1 6 8 0 0 0 0 27 33 103 192 112 10 24 0 56 251 97 0 0 0 0
4 2 2 1 1 0 1 0 0 0 0 0 0 0 0 0 0 0 0 0 0 0 0 0 0 0 0 0 0 29 114 54 80 122 87 1 0 0 43 206 43 12 0 0 0
6 4 2 2 0 0 0 0 0 0 0 0 0 0 0 0 0 0 0 0 0 0 0 0 0 0 0 0 0 0 0 0 37 155 17 0 0 0 9 0 0 0 32 0 0
4 3 2 0 0 0 0 0 0 0 0 0 0 0 0 0 0 0 0 0 0 0 0 0 0 0 0 0 0 0 0 0 81 111 4 0 0 0 0 0 0 0 61 1 0
1 1 1 1 0 0 0 0 0 0 0 0 0 0 0 0 0 0 0 0 0 0 0 0 0 0 0 0 0 0 0 5 37 119 29 14 0 0 0 0 0 0 48 9 0
0 0 3 1 0 0 0 0 0 0 0 0 0 0 0 0 0 0 0 0 0 0 0 0 0 0 0 0 0 0 0 0 89 43 2 4 0 0 0 0 0 0 97 92 0
0 3 5 1 0 0 0 0 0 0 0 0 0 0 0 0 0 0 0 0 0 0 0 0 0 0 0 0 0 0 0 14 118 35 21 8 0 0 0 0 0 0 8 71 7
0 4 2 0 0 0 0 0 0 0 0 0 0 0 0 0 0 0 0 0 0 0 0 0 0 0 0 0 0 0 0 0 21 0 0 0 1 0 4 11 0 0 15 69 53
0 1 1 0 0 0 0 0 0 0 0 0 0 0 0 0 0 0 0 0 0 0 0 0 0 0 0 0 0 0 0 0 0 0 0 0 0 0 0 4 20 0 0 102 24
0 0 0 0 0 0 0 0 0 0 0 0 0 0 0 0 0 0 0 0 0 0 0 0 0 0 0 0 0 0 0 0 0 0 0 0 0 0 0 0 6 1 0 23 129
0 0 0 0 0 0 0 0 0 0 0 0 0 0 0 0 0 0 0 0 0 0 0 0 0 0 0 0 0 0 0 0 0 0 0 0 0 0 0 0 0 22 8 24 148
0 0 0 0 0 0 0 0 0 0 0 0 0 0 0 0 0 0 0 0 0 0 0 0 0 0 0 0 0 0 0 0 0 0 0 0 0 0 16 20 38 101 59 49 124
0 0 0 0 0 0 0 0 0 0 0 0 0 0 0 0 0 0 0 0 0 0 0 0 0 0 0 0 0 0 0 0 0 0 0 0 0 0 0 0 37 23 30 215 419
0 0 0 0 0 0 0 0 0 0 0 0 0 0 0 0 0 0 0 0 0 0 0 0 0 0 0 0 0 0 0 0 0 0 0 0 0 0 0 0 0 192 1118 727 491
0 0 0 0 0 0 0 0 0 0 0 0 0 0 0 0 0 0 0 0 0 0 0 0 0 0 0 0 0 0 0 0 0 0 0 0 0 0 23 120 127 428 860 954 822
0 0 0 0 0 0 0 0 0 0 0 0 0 0 0 0 0 0 0 0 0 0 105 0 0 0 0 0 0 0 0 0 0 0 0 0 0 8 516 668 714 781 673 676 485
0 0 0 0 0 0 0 0 0 0 0 0 0 0 0 0 0 0 0 0 0 0 0 0 0 0 0 0 0 0 0 0 0 0 0 0 0 0 562 965 745 508 369 250 237
0 0 0 0 0 0 0 0 0 0 0 0 0 0 0 0 0 0 0 0 0 0 0 0 0 0 0 0 0 0 103 52 99 200 0 133 684 579 692 655 454 247 120 31 46
0 0 0 0 0 0 0 0 0 0 0 0 0 0 0 0 0 0 0 0 0 0 0 0 0 0 0 0 0 0 197 277 133 118 325 282 749 799 576 413 219 97 5 0 0